Etusivu
METAR-TAF:

METAR-TAF

Lentoasemat :

Fergus Falls Municipal Airport (Einar Mickelson Field)

Fergus Falls, Minnesota, Yhdysvallat

Leveyspiiri: 46-17N, Pituuspiiri: 096-09W, korkeus merenpinnasta: 616 m

Tämänhetkinen sää

Tämä raportti tehtiin 21 minuuttia sitten, kello 12.15 UTC
Tuuli 3 kn idästä/koillisesta
Lämpötila -8°C
Kosteus 92%
Ilmanpaine 1016 hPa
Näkyvyys: 16.1 km
selkeää

METAR: KFFM 241215Z AUTO 06003KT 10SM CLR M08/M09 A2999 RMK AO2

Aika: 06:36 (12:36 UTC)


TAF: puuttuu

Säähavainnot ja -ennusteet yli 4000 lentoasemalta (METAR- ja TAF-raportit).

Käytössä olevat sääasemat on merkitty karttaan keltaisilla ja punaisilla pisteillä.

Aseta hiiri pisteen päälle nähdäksesi sääaseman nimen.

Klikkaa sitten nähdäksesi säähavainnot ja -ennusteet.

Kartan vaihtaminen: klikkaa mustalla rastilla varustettuja vihreitä pisteitä, niin voit zoomata sisään; viivalla varustettua vihreää pistettä, niin voit zoomata ulos tai vihreitä nuolia, niin pääset viereisille kartoille.


METAR-TAF: